Location: Bayshore Village Mobile Home Park
(26.6945°N, 81.8642°W)
Time: 22:32:33
(UTC+00:00)

Helios 1A Rocket - Pass Details

Date: 17 June 2021
Orbit: 563 x 584 km, 98.3° (Epoch: 31 July)

Event Time Altitude Azimuth Distance (km) Brightness Sun altitude
Exits shadow 00:39:13 - 139° (SE) 2,477 5.5 -4.1°
Reaches altitude 10° 00:40:51 10° 130° (SE) 1,879 4.9 -4.4°
Maximum altitude 00:44:15 26° 73° (ENE) 1,139 4.1 -5.1°
Drops below altitude 10° 00:47:39 10° 16° (NNE) 1,875 5.7 -5.7°
Sets 00:50:02 0° 4° (N) 2,772 6.8 -6.2°
